This is the latest recevied weather packets stored in our database for station/object WP4PW. If no packets are shown the sender has not sent any weather packets the latest 1 day(s).
| Time | Temp. | Humidity | Pressure | Rain* | Wind** | Luminosity | Snow |
|---|---|---|---|---|---|---|---|
| 1836274559 | 25° C | 95% | 1019.2 hPa | 0 mm | 0 m/s | 0 W/m² | - |
| 1836274413 | 25° C | 95% | 1019.4 hPa | 0 mm | 0 m/s | 0 W/m² | - |
| 1836274258 | 25° C | 95% | 1019.3 hPa | 0 mm | 0 m/s | 0 W/m² | - |
| 1836274111 | 25° C | 95% | 1019.4 hPa | 0 mm | 0 m/s | 0 W/m² | - |
| 1836273957 | 25° C | 95% | 1019.3 hPa | 0 mm | 0 m/s | 0 W/m² | - |
| 1778039206 | 26.67° C | 88% | 1021.9 hPa | 0 mm | 0 m/s | 0 W/m² | - |
| 1778038903 | 26.67° C | 89% | 1022 hPa | 0 mm | 1.79 m/s, 85° | 0 W/m² | - |
| 1778038600 | 26.67° C | 89% | 1022.1 hPa | 0 mm | 0 m/s | 0 W/m² | - |
| 1778038297 | 26.67° C | 89% | 1022 hPa | 0 mm | 1.34 m/s, 41° | 0 W/m² | - |
| 1778037994 | 26.67° C | 88% | 1022.1 hPa | 0 mm | 0.45 m/s, 117° | 0 W/m² | - |
| 1778037691 | 26.67° C | 87% | 1022.1 hPa | 0 mm | 0.45 m/s, 88° | 0 W/m² | - |
| 1778037388 | 26.67° C | 87% | 1021.9 hPa | 0 mm | 0.89 m/s, 98° | 0 W/m² | - |
| 1778037085 | 26.67° C | 87% | 1022.4 hPa | 0 mm | 0.45 m/s, 98° | 0 W/m² | - |
| 1778036784 | 26.67° C | 88% | 1022.4 hPa | 0 mm | 0.89 m/s, 136° | 0 W/m² | - |
| 1778036480 | 26.67° C | 87% | 1022.4 hPa | 0 mm | 0.89 m/s, 110° | 0 W/m² | - |
| 1778036177 | 26.67° C | 87% | 1022.3 hPa | 0 mm | 0.89 m/s, 105° | 0 W/m² | - |
| 1778035873 | 26.67° C | 87% | 1022.3 hPa | 0 mm | 1.79 m/s, 110° | 0 W/m² | - |
| 1778035571 | 26.67° C | 89% | 1022.5 hPa | 0 mm | 0.89 m/s, 98° | 0 W/m² | - |
| 1778035267 | 26.67° C | 88% | 1022.3 hPa | 0 mm | 0.89 m/s, 71° | 0 W/m² | - |
| 1778034963 | 26.67° C | 87% | 1022.3 hPa | 0 mm | 0 m/s | 0 W/m² | - |
| 1778034661 | 26.67° C | 86% | 1022.3 hPa | 0 mm | 1.79 m/s, 70° | 0 W/m² | - |
| 1778034358 | 26.67° C | 87% | 1022.3 hPa | 0 mm | 0.89 m/s, 110° | 0 W/m² | - |
| 1778034055 | 26.67° C | 88% | 1022.4 hPa | 0 mm | 0 m/s | 0 W/m² | - |
| 1778033753 | 26.67° C | 87% | 1022.3 hPa | 0 mm | 2.24 m/s, 162° | 0 W/m² | - |
| 1778033450 | 26.67° C | 87% | 1022.3 hPa | 0 mm | 1.34 m/s, 121° | 0 W/m² | - |
* Rain latest hour (hover to see other rain measurements)
** Current wind speed in m/s (hover to see current wind gust speed)